Location: Endfield
(51.6667°N, 0.0667°W)
Time: 13:50:48
(UTC+00:00)

NOSS 2-1 (C) - Pass Details

Date: 19 May 2024
Orbit: 387 x 1744 km, 63.3° (Epoch: 18 June)

Event Time Altitude Azimuth Distance (km) Brightness Sun altitude
Rises 23:03:07 0° 313° (NW) 2,470 7.6 -17.3°
Reaches altitude 10° 23:04:58 10° 312° (NW) 1,690 6.6 -17.4°
Maximum altitude 23:08:40 77° 226° (SW) 610 3.4 -17.5°
Enters shadow 23:10:43 32° 146° (SE) 1,116 4.3 -17.6°
